CW0198 Weather Reports


time (UTC)temp
C
wind
direction
speed
KPH
gust
KPH
rain 1hr
cm
rain 24hr
cm
rain mn
cm
humidity
%
barometer
mb
20260503010008 10 203 0.0 0.0 0.00 1.12 1.12 97 1012.6
20260503004533 10 203 0.0 0.0 0.00 1.12 1.12 96 1012.4
20260503003058 11 203 0.0 0.0 0.00 1.12 1.12 96 1012.2
20260503001525 11 202 0.0 0.0 0.00 1.12 1.12 96 1012.1
20260503000043 11 154 0.0 0.0 0.00 1.12 1.12 96 1011.8
20260502234510 11 167 0.0 0.0 0.00 1.12 1.12 96 1011.7
20260502233029 11 167 0.0 0.0 0.00 1.12 1.12 95 1011.7
20260502231502 11 167 0.0 0.0 0.00 1.12 1.12 94 1011.4
20260502230021 11 167 0.0 0.0 0.00 1.12 1.12 94 1011.5
20260502224607 11 167 0.0 0.0 0.00 1.12 1.12 93 1011.5
20260502223026 11 158 0.0 0.0 0.03 1.12 1.12 93 1011.5
20260502221544 11 169 0.0 0.0 0.03 1.12 1.12 93 1011.5
20260502220015 11 18 0.0 1.6 0.03 1.12 1.12 93 1011.4
20260502214532 11 240 0.0 0.0 0.03 1.12 1.12 93 1011.2
20260502213124 11 15 0.0 0.0 0.00 1.09 1.09 93 1011.2
20260502213002 11 20 0.0 0.0 0.00 1.09 1.09 93 1011.2
20260502211534 11 18 0.0 4.8 0.03 1.09 1.09 93 1011.5
20260502210044 11 337 0.0 4.8 0.03 1.09 1.09 92 1011.3
20260502204510 11 75 0.0 6.4 0.03 1.09 1.09 94 1011.3
20260502203030 11 75 0.0 3.2 0.03 1.09 1.09 94 1011.3
20260502201558 11 15 0.0 8.0 0.03 1.07 1.07 93 1011.3
20260502200025 11 358 0.0 8.0 0.03 1.07 1.07 95 1011.5
20260502194538 11 4 1.6 11.3 0.03 1.07 1.07 94 1011.6
20260502193012 11 143 0.0 8.0 0.05 1.07 1.07 94 1011.8
20260502191538 11 335 0.0 6.4 0.05 1.04 1.04 95 1012.0
20260502190100 11 316 3.2 11.3 0.08 1.07 1.04 94 1012.0
20260502184542 11 334 1.6 8.0 0.10 1.07 1.04 95 1011.9
20260502183057 10 339 0.0 8.0 0.10 1.04 1.02 95 1011.9
20260502181517 11 43 1.6 9.7 0.08 1.02 0.99 95 1012.5
20260502163059 11 335 1.6 6.4 0.13 0.86 0.84 95 1013.2
20260502163015 10 73 1.6 6.4 0.13 0.86 0.84 95 1013.1
20260502161527 11 102 0.0 4.8 0.10 0.81 0.79 96 1013.2
20260502151501 11 67 3.2 11.3 0.15 0.71 0.69 96 1013.0
20260502123019 10 14 3.2 14.5 0.15 0.36 0.33 95 1011.6
20260502121541 10 3 3.2 11.3 0.18 0.33 0.30 94 1011.5
20260502114527 11 51 6.4 16.1 0.18 0.25 0.23 93 1011.4
20260502113055 11 27 6.4 19.3 0.15 0.20 0.18 93 1011.6
20260502111517 11 352 6.4 12.9 0.13 0.15 0.13 92 1011.7
20260502110039 11 359 6.4 16.1 0.08 0.10 0.08 92 1011.6
20260502104551 11 327 8.0 20.9 0.05 0.08 0.05 92 1011.8
20260502103007 11 316 6.4 14.5 0.03 0.05 0.03 91 1011.7
20260502101607 11 359 4.8 12.9 0.00 0.03 0.00 91 1011.7
20260502100104 12 347 1.6 8.0 0.00 0.03 0.00 90 1011.7
20260502091519 11 322 0.0 6.4 0.00 0.03 0.00 91 1011.7
20260502080110 11 205 0.0 0.0 0.00 0.03 0.00 94 1011.3
20260502071507 11 205 0.0 0.0 0.00 0.03 0.00 95 1011.1
20260502070053 11 205 0.0 0.0 0.00 0.03 0.00 96 1011.3
20260502064559 10 205 0.0 0.0 0.00 0.03 0.00 96 1011.4
20260502064511 10 205 0.0 0.0 0.00 0.03 0.00 96 1011.5
20260502063030 10 205 0.0 0.0 0.00 0.03 0.00 96 1011.4
20260502061552 10 205 0.0 0.0 0.00 0.03 0.00 96 1011.5
20260502060012 10 205 0.0 0.0 0.00 0.03 0.00 96 1011.7
20260502054539 10 205 0.0 0.0 0.00 0.03 0.00 96 1011.8
20260502053051 10 205 0.0 0.0 0.00 0.03 0.00 96 1012.0
20260502051521 10 205 0.0 0.0 0.00 0.03 0.00 96 1012.2
20260502050037 10 205 0.0 0.0 0.00 0.03 0.00 96 1012.2
20260502044558 10 205 0.0 0.0 0.00 0.03 0.00 96 1012.4
20260502044500 10 205 0.0 0.0 0.00 0.03 0.00 96 1012.3
20260502043031 10 205 0.0 0.0 0.00 0.03 0.00 95 1012.4
20260502041547 10 205 0.0 0.0 0.00 0.03 0.00 95 1012.4
20260502040003 10 205 0.0 0.0 0.00 0.03 0.03 96 1012.4
20260502034524 10 205 0.0 0.0 0.00 0.03 0.03 95 1012.3
20260502033043 10 205 0.0 0.0 0.00 0.03 0.03 95 1012.7
20260502031507 10 205 0.0 0.0 0.00 0.03 0.03 95 1012.9
20260502030037 10 205 0.0 0.0 0.00 0.03 0.03 95 1012.9
20260502024504 10 205 0.0 0.0 0.00 0.03 0.03 94 1013.1
20260502023042 10 205 0.0 0.0 0.00 0.03 0.03 94 1013.0
20260502021504 10 205 0.0 0.0 0.00 0.03 0.03 94 1013.2
20260502020026 10 160 0.0 0.0 0.00 0.03 0.03 93 1013.0
20260502014555 10 160 0.0 0.0 0.00 0.03 0.03 92 1012.7
20260502013030 10 160 0.0 0.0 0.00 0.03 0.03 92 1012.8
20260502011549 11 160 0.0 0.0 0.00 0.03 0.03 92 1012.9